South Lake Tahoe, CA

5:48 AM PDT on October 23, 2019 (GMT -0700)
Lake Tahoe

Weather History for KTVL - August, 2019

Change the Weather History Date:

Tuesday, August 20, 2019

  Actual Average Record
Temperature  
Mean Temperature 62 °F 60 °F  
Max Temperature 81 °F 80 °F 91 °F (1988)
Min Temperature 44 °F 40 °F 28 °F (1994)
Degree Days  
Heating Degree Days 2 5  
Month to date heating degree days 79 88  
Since 1 June heating degree days 462 536  
Since 1 July heating degree days 217 226  
Cooling Degree Days 0 0  
Month to date cooling degree days 3 7  
Year to date cooling degree days 15 26  
Since 1 June cooling degree days 15 26  
Growing Degree Days 12 (Base 50)    
Moisture  
Dew Point 44 °F    
Average Humidity 56    
Maximum Humidity 89    
Minimum Humidity 23    
Precipitation  
Precipitation 0.00 in - 0.53 in (1958)
Month to date precipitation T  
Year to date precipitation 17.74  
Sea Level Pressure  
Sea Level Pressure 30.06 in    
Wind  
Wind Speed 3 mph ()    
Max Wind Speed 15 mph    
Max Gust Speed 19 mph    
Visibility 10.0 miles    
Events      
T = Trace of Precipitation, MM = Missing Value Source: Averaged Metar Reports

Daily Weather History Graph

Daily Weather History Graph

Search for Another Location

Airport or City:

Astronomy

Aug. 20, 2019 Rise Set
Actual Time 6:18 AM PDT 7:48 PM PDT
Civil Twilight 5:49 AM PDT 8:16 PM PDT
Nautical Twilight 5:16 AM PDT 8:49 PM PDT
Astronomical Twilight 4:40 AM PDT 9:25 PM PDT
Moon 10:41 PM PDT (8/20) 10:58 AM PDT (8/20)
Length of Visible Light 14h 26m
Length of Day
13h 30m
Waning Gibbous, 77% of the Moon is Illuminated
Aug 20
Waning Gibbous
Aug 23
Last Quarter
Aug 30
New
Sep 5
First Quarter
Sep 13
Full

Hourly Weather History & Observations

Time (PDT) Temp. Windchill Dew Point Humidity Pressure Visibility Wind Dir Wind Speed Gust Speed Precip Events Conditions
12:53 AM 53.1 °F - 45.0 °F 74% 30.03 in 10.0 mi Calm Calm - N/A   Clear
1:53 AM 50.0 °F - 44.1 °F 80% 30.04 in 10.0 mi Calm Calm - N/A   Clear
2:53 AM 48.9 °F - 43.0 °F 80% 30.04 in 10.0 mi Calm Calm - N/A   Clear
3:53 AM 46.9 °F - 42.1 °F 83% 30.05 in 10.0 mi Calm Calm - N/A   Clear
4:53 AM 46.0 °F - 42.1 °F 86% 30.06 in 10.0 mi Calm Calm - N/A   Clear
5:53 AM 46.0 °F 43.9 °F 41.0 °F 83% 30.06 in 10.0 mi South 4.6 mph - N/A   Clear
7:53 AM 52.0 °F - 43.0 °F 71% 30.08 in 10.0 mi SSE 3.5 mph - N/A   Clear
8:53 AM 62.1 °F - 44.1 °F 52% 30.06 in 10.0 mi Calm Calm - N/A   Clear
9:53 AM 69.1 °F - 46.0 °F 44% 30.05 in 10.0 mi NE 5.8 mph - N/A   Clear
10:53 AM 73.0 °F - 45.0 °F 37% 30.05 in 10.0 mi Variable 5.8 mph - N/A   Clear
11:53 AM 73.9 °F - 44.1 °F 34% 30.05 in 10.0 mi Variable 4.6 mph - N/A   Clear
12:53 PM 75.0 °F - 43.0 °F 32% 30.05 in 10.0 mi NNE 6.9 mph - N/A   Clear
1:53 PM 77.0 °F - 42.1 °F 29% 30.04 in 10.0 mi NNE 11.5 mph - N/A   Clear
2:53 PM 79.0 °F - 37.9 °F 23% 30.03 in 10.0 mi NNE 11.5 mph - N/A   Clear
3:53 PM 80.1 °F - 41.0 °F 25% 30.02 in 10.0 mi Variable 5.8 mph - N/A   Clear
4:53 PM 78.1 °F - 43.0 °F 29% 30.03 in 10.0 mi South 4.6 mph - N/A   Clear
5:53 PM 77.0 °F - 46.9 °F 34% 30.04 in 10.0 mi South 13.8 mph - N/A   Clear
6:53 PM 70.0 °F - 48.0 °F 46% 30.08 in 10.0 mi SSW 9.2 mph - N/A   Clear
7:53 PM 66.0 °F - 48.0 °F 52% 30.09 in 10.0 mi South 4.6 mph - N/A   Clear
8:53 PM 60.1 °F - 48.0 °F 64% 30.09 in 10.0 mi Calm Calm - N/A   Clear
9:53 PM 55.9 °F - 46.9 °F 72% 30.09 in 10.0 mi Calm Calm - N/A   Clear
10:53 PM 53.1 °F - 46.0 °F 77% 30.09 in 10.0 mi South 3.5 mph - N/A   Clear
11:53 PM 51.1 °F - 44.1 °F 77% 30.09 in 10.0 mi Calm Calm - N/A   Clear